SCP
0 0 0 1 0 0 0 0 0 0 0 0 0 0 0 0 0 0 0 0 0 0 0 0 0 0 0 0 0 0 0 0 0 0 0 0 0 0 0 0 0 0 0
0 0 0 1 0 0 0 0 0 0 0 0 0 0 0 0 0 0 0 0 0 0 0 0 0 0 0 0 0 0 0 0 0 0 0 0 0 0 0 0 0 0 0
0 0 0 0 0 0 0 0 0 0 0 0 0 0 0 0 0 0 0 0 0 0 0 0 0 0 0 0 0 0 0 0 0 0 0 0 0 0 0 0 0 0 0
0 0 0 0 0 0 0 0 0 0 0 0 0 0 0 0 0 0 0 0 0 0 0 0 0 0 0 0 0 0 0 0 0 0 0 0 0 0 0 0 0 0 0
0 0 0 0 0 0 0 0 0 0 0 0 0 -0 -0 0 0 0 0 0 0 0 0 0 0 0 0 -0 -0 -0 0 0 0 0 0 0 0 -0 0 0 0 0 0
0 0 0 1 1 0 0 0 0 0 0 0 0 -0 -0 -0 0 0 0 0 0 0 0 0 0 0 0 -0 -0 -0 -0 -0 0 0 0 0 0 -0 0 0 0 0 0
0 0 1 1 1 1 0 0 0 0 0 0 0 0 -0 -0 0 0 0 0 0 0 0 0 0 0 0 -0 -0 -0 0 0 0 0 0 0 0 -0 -0 -0 -0 -0 -0
0 1 1 1 1 1 0 0 0 0 0 0 0 0 0 -0 0 0 0 0 0 0 0 0 0 0 0 0 -0 0 0 0 0 0 0 0 0 -0 -0 -0 -0 -0 -0
1 1 1 1 1 0 0 0 0 0 0 0 0 0 0 0 0 0 0 0 0 0 0 -0 -0 -0 -0 -0 -0 0 0 0 0 0 0 0 0 0 0 -0 -0 -0 0
1 1 1 1 0 0 0 0 0 0 0 0 0 0 0 0 0 0 0 0 0 0 0 -0 -0 -0 -0 0 -0 -0 0 0 0 0 0 0 0 0 0 0 0 0 0
0 0 0 0 0 0 0 0 0 0 0 0 0 0 0 0 0 0 0 0 0 0 0 0 0 0 0 0 0 0 0 0 0 0 0 0 0 0 0 0 0 0 0
0 0 0 0 0 0 0 0 0 0 0 0 0 0 0 0 0 0 0 0 0 0 0 0 0 0 0 0 0 0 0 0 0 0 0 0 0 0 0 0 0 0 0
0 0 0 0 0 0 0 0 0 0 0 0 0 0 0 0 0 0 0 0 0 0 0 0 0 0 0 0 0 0 0 0 0 0 0 0 0 0 0 0 0 0 0
0 0 0 0 0 0 0 0 0 0 0 0 0 0 0 0 0 0 0 0 0 0 0 0 0 0 0 0 0 0 0 0 0 0 0 0 0 0 0 0 0 0 0
0 0 0 0 0 0 0 0 0 0 0 0 0 0 0 0 0 0 0 0 0 0 0 0 0 0 0 0 0 0 0 0 0 0 0 0 0 0 0 0 0 0 0
0 0 0 0 0 0 0 0 0 0 0 0 0 0 0 0 0 0 0 0 0 0 0 0 0 0 0 0 0 0 0 0 0 0 0 0 0 0 0 0 0 0 0
0 0 0 0 0 0 0 0 0 0 0 0 0 0 0 0 0 0 0 0 0 0 0 0 0 0 0 0 0 0 0 0 0 0 0 0 0 0 0 0 0 0 0
0 0 0 0 0 0 0 0 0 0 0 0 0 0 0 0 0 0 0 0 0 0 0 0 0 0 0 0 0 0 0 0 0 0 0 0 0 0 0 0 0 0 0
0 0 0 0 0 0 0 0 0 0 0 0 0 0 0 0 0 0 0 0 0 0 0 0 0 0 0 0 0 0 0 0 0 0 0 0 0 0 0 0 0 0 0
0 0 0 0 0 0 0 0 0 0 0 0 0 0 0 0 0 0 0 0 0 0 0 0 0 0 0 0 0 0 0 0 0 0 0 0 0 0 0 0 0 0 0
0 0 0 0 0 0 0 0 0 0 0 0 0 0 0 0 0 0 0 0 0 0 0 0 0 0 0 0 0 0 0 0 0 0 0 0 0 0 0 0 0 0 0
0 0 0 0 0 0 0 0 0 0 0 0 0 0 0 0 0 0 0 0 0 0 0 0 0 0 0 0 0 0 0 0 0 0 0 0 0 0 0 0 0 0 0
0 0 0 0 0 0 0 0 0 0 0 0 0 0 0 0 0 0 0 0 0 0 0 0 0 0 0 0 0 0 0 0 0 0 0 0 0 0 0 0 0 0 0
0 0 0 0 0 0 0 0 0 0 0 0 0 0 0 0 0 0 0 0 0 0 0 0 0 0 0 0 0 0 0 0 0 0 0 0 0 0 0 0 0 0 0
0 0 0 0 0 0 0 0 0 0 0 0 0 0 0 0 0 0 0 0 0 0 0 0 0 0 0 0 0 0 0 0 0 0 0 0 0 0 0 0 0 0 0
0 0 0 0 0 0 0 0 0 0 0 0 0 0 0 0 0 0 0 0 0 0 0 0 0 0 0 0 0 0 0 0 0 0 0 0 0 0 0 0 0 0 0
Wind_Speed
4 7 16 15 15 15 15 14 13 11 9 10 9 9 10 9 6 5 5 3 8 8 6 6 6 10 10 7 5 4 3 3 4 5 5 5 5 6 6 10 5 1 5
9 7 14 16 16 14 14 13 13 12 10 9 9 9 7 7 5 6 5 5 8 6 4 6 7 7 6 5 2 2 4 2 3 3 4 4 5 7 8 5 4 2 3
11 9 13 15 14 14 14 13 12 12 10 10 9 9 8 7 7 7 7 6 7 5 3 2 3 3 2 2 1 2 2 0 0 3 4 2 4 9 9 5 4 5 3
12 9 9 15 15 15 15 13 12 11 10 8 7 6 6 7 7 7 8 6 5 4 2 0 0 1 2 3 4 5 4 3 3 4 3 2 4 8 10 8 8 7 6
10 8 8 15 15 15 15 13 12 10 9 8 6 3 1 3 5 8 10 9 8 5 3 2 2 2 3 4 5 6 7 7 5 4 3 4 5 7 9 9 9 9 8
8 7 9 15 15 15 14 13 12 10 8 8 7 5 1 2 2 7 8 10 9 7 4 3 3 4 5 6 7 7 8 7 5 4 4 5 5 9 11 11 11 11 10
8 7 10 14 15 15 13 12 11 11 9 8 7 6 4 5 4 4 8 8 7 5 4 3 4 6 7 8 9 9 9 7 4 4 5 5 6 11 14 14 13 13 13
10 8 8 12 15 14 13 12 11 11 10 9 8 6 5 3 3 3 6 6 5 5 4 5 6 8 8 9 9 9 8 7 5 5 5 5 10 14 15 16 16 14 14
10 9 7 8 10 11 12 11 11 11 10 9 7 5 4 3 2 1 5 5 4 4 5 6 8 9 9 9 10 10 9 8 6 5 6 5 12 16 16 15 16 16 15
8 9 8 6 6 6 6 9 9 9 9 8 7 5 4 3 3 3 2 4 6 6 7 8 9 9 10 10 11 11 11 9 6 6 5 8 15 17 16 16 16 16 16
7 7 9 8 6 6 5 6 8 8 8 8 6 5 4 2 3 3 4 7 8 9 9 9 9 9 9 8 10 11 9 4 5 5 5 12 17 18 17 17 17 17 17
11 9 8 9 8 6 5 4 4 4 4 4 4 3 2 2 2 3 4 7 8 8 7 8 9 9 7 4 5 7 5 5 4 6 6 14 18 20 20 20 18 18 19
10 10 10 9 9 7 5 4 3 2 3 3 4 4 2 2 1 1 1 3 3 4 3 5 5 4 3 3 3 4 5 5 4 5 7 15 17 19 20 20 19 18 18
7 10 11 10 7 6 5 5 4 3 3 3 4 4 3 2 1 1 1 1 1 1 1 2 3 5 6 6 5 6 6 5 4 4 5 12 15 17 18 19 19 19 19
10 10 9 10 8 7 6 4 4 4 4 3 3 4 4 3 2 1 2 3 3 3 4 4 5 5 6 7 6 6 6 6 6 4 4 9 13 16 18 18 19 19 18
10 10 7 9 8 8 6 5 4 4 4 4 3 4 4 4 3 4 5 5 4 4 4 4 4 4 5 5 6 7 6 6 6 6 4 6 11 13 16 17 18 18 19
7 7 8 8 9 9 7 6 4 5 6 5 5 6 7 7 7 5 5 5 4 4 5 5 5 5 5 6 7 7 7 7 6 6 5 4 5 8 13 17 18 20 21
7 7 7 8 10 10 8 7 5 7 8 6 6 7 9 8 6 5 5 4 4 4 5 5 5 5 5 6 6 6 6 6 6 6 5 5 4 3 7 13 18 19 20
7 7 7 9 10 10 10 9 9 9 8 6 6 6 7 7 6 6 5 4 5 4 4 4 3 3 4 6 6 7 6 4 3 5 6 6 5 4 4 7 12 12 15
6 6 7 10 11 13 12 11 9 8 5 5 5 6 7 6 6 6 5 5 5 4 4 4 4 3 2 5 5 7 6 2 2 6 6 5 4 4 3 3 3 6 13
6 7 8 13 14 13 11 10 8 5 4 4 5 6 7 6 6 6 5 5 4 4 4 4 3 4 3 5 4 6 5 3 3 9 6 5 6 7 5 7 5 3 5
6 7 9 13 13 11 9 6 6 5 4 4 4 6 6 6 6 6 5 4 4 4 6 5 4 3 3 4 4 4 6 7 9 10 7 6 8 7 8 9 6 4 3
7 8 10 12 11 10 10 9 7 7 5 3 3 4 5 6 6 6 6 5 5 4 4 4 3 3 3 3 4 4 5 6 10 6 7 6 10 6 8 5 7 4 3
7 7 10 12 11 11 12 11 11 7 5 3 3 4 5 6 6 6 6 5 5 3 3 3 3 2 3 3 3 2 1 4 4 9 7 10 6 8 6 5 5 3 4
8 8 9 11 10 8 9 9 8 6 5 4 4 6 5 5 5 5 5 5 4 3 3 4 4 4 3 2 2 3 2 2 4 6 11 9 10 8 7 5 4 4 4
7 7 7 10 7 8 9 9 9 9 8 7 6 5 4 3 3 4 4 3 3 3 3 4 4 5 4 3 2 2 2 3 5 6 10 12 13 9 6 5 5 5 4
Wind_Direction
183 176 165 169 161 153 149 150 142 136 135 127 123 132 133 118 109 118 128 142 96 85 42 17 17 36 44 63 95 113 136 97 32 18 338 307 289 266 244 246 204 254 252
158 171 159 162 165 162 155 152 145 142 140 137 137 140 142 124 131 139 143 131 102 90 39 356 357 14 35 46 70 172 210 167 40 339 304 299 291 272 260 234 156 209 240
149 164 158 162 168 164 157 154 152 148 146 146 156 158 162 167 150 141 148 141 106 89 62 23 354 345 340 331 291 254 267 1 176 271 290 294 279 267 251 217 224 237 239
151 163 162 166 168 162 158 160 158 155 154 160 176 168 166 169 167 153 149 135 135 139 138 179 314 339 295 282 274 278 291 294 238 253 275 279 286 271 233 222 241 248 241
153 161 164 165 166 163 162 163 162 161 162 167 184 148 136 170 187 171 162 150 155 160 166 213 270 296 302 298 294 293 284 277 247 259 281 285 283 269 233 238 252 259 259
154 155 158 159 162 161 163 165 165 164 168 173 182 162 126 39 179 188 183 163 164 169 193 222 257 277 283 282 282 278 274 271 244 259 280 284 283 269 261 251 246 254 261
155 154 154 157 157 158 163 166 168 166 167 173 178 168 144 61 45 170 185 167 175 185 221 256 285 298 298 289 284 274 267 268 248 246 262 269 271 273 272 268 261 259 262
153 151 157 161 158 162 167 171 171 172 171 173 175 174 163 118 65 154 178 178 199 233 255 282 290 294 297 294 287 284 284 277 258 250 254 261 272 277 274 272 269 265 267
152 149 155 162 166 167 171 175 179 182 174 169 163 169 164 163 150 162 193 202 221 248 266 284 287 286 288 286 284 282 279 270 261 252 256 254 265 274 274 271 271 272 269
163 163 161 166 170 168 172 180 182 178 169 163 158 160 168 191 213 227 194 230 234 244 263 275 277 278 281 282 281 279 275 271 258 250 249 254 268 272 275 278 276 274 272
182 180 170 172 179 176 173 185 179 176 171 169 171 185 178 200 230 229 226 235 230 243 259 268 272 275 277 277 277 278 279 263 261 256 249 258 267 274 277 278 278 276 274
190 193 182 178 183 179 180 177 172 174 171 177 184 196 178 204 224 207 211 229 239 252 268 282 292 293 285 276 279 284 277 269 260 256 251 266 278 283 280 280 280 276 271
188 184 190 184 183 176 175 164 168 174 176 189 196 194 187 190 192 179 242 277 286 299 301 302 305 307 310 315 306 303 297 288 271 262 261 268 281 289 290 293 291 287 284
194 190 182 187 179 174 168 164 169 183 183 195 202 196 173 162 117 4 312 288 290 283 312 351 8 13 12 6 354 335 325 318 305 285 277 277 289 303 305 306 304 296 287
196 195 174 169 169 158 151 142 158 181 175 188 177 174 155 130 115 93 50 41 29 32 47 39 29 19 9 356 351 347 337 331 325 313 295 299 310 319 322 325 325 319 304
189 184 161 153 149 141 137 134 130 143 150 145 127 124 111 105 100 83 63 48 34 39 50 42 33 19 6 355 347 340 329 327 326 322 317 321 330 337 348 355 358 359 2
169 158 155 151 141 136 136 128 125 113 101 92 84 79 75 75 81 77 69 51 29 32 38 36 23 17 12 358 343 330 328 332 333 335 340 339 335 341 356 4 12 9 12
138 139 153 150 141 134 128 115 96 87 90 89 86 83 79 76 81 81 67 51 36 36 32 29 19 9 4 352 330 319 322 329 339 349 346 341 332 341 345 2 4 3 5
144 139 144 145 137 121 106 99 96 93 91 89 82 85 85 81 76 75 67 51 45 40 31 20 12 12 357 341 323 312 311 326 352 358 347 338 337 349 337 351 348 352 359
149 146 137 130 120 114 112 107 97 88 79 78 86 91 87 79 74 74 63 51 47 46 28 17 359 341 349 329 316 305 301 309 19 3 347 338 341 346 330 323 334 339 360
136 137 137 128 129 126 127 124 118 111 92 78 79 83 81 78 73 70 60 48 43 49 34 21 355 342 332 338 328 314 315 321 15 356 351 344 353 347 349 354 348 341 353
139 131 132 132 133 132 130 121 121 118 99 88 80 75 74 74 71 70 66 55 44 38 28 20 17 347 328 358 348 337 339 332 346 337 334 343 347 350 347 342 327 333 354
140 139 137 139 136 132 126 117 107 102 89 74 71 69 65 72 69 67 66 61 49 45 28 8 6 29 344 334 12 41 353 318 318 315 325 334 338 337 325 313 311 316 340
152 141 139 141 138 139 137 137 141 137 134 142 126 103 80 70 69 66 64 59 53 42 27 359 6 7 11 358 355 37 247 267 305 312 318 320 319 317 299 294 300 295 321
144 139 141 140 137 136 130 132 129 119 119 117 109 104 87 70 66 65 63 60 51 37 18 8 6 8 18 5 348 323 318 270 246 280 298 309 311 306 296 284 284 290 291
129 126 132 128 125 129 127 130 133 132 129 123 129 120 108 83 61 54 58 54 41 21 5 357 356 1 3 356 333 314 297 298 307 297 300 304 301 295 286 285 282 281 267